Retour au catalogue

COSMOS 970 DEB

ActifLEO
NORAD 10576·DEBRIS·🇷🇺 Russia

Lancé Dec 21, 1977 depuis Baikonur Cosmodrome

Loading…

Prochains Passages (prochaines 24 heures)

TLE

FraisSource: Space-Track

Époque: Sep 14, 2026, 11:24 UTC

1 10576U 77121T   26257.47537025  .00000043  00000-0  13775-3 0  9995
2 10576  65.8399 330.5971 0131615 142.2133 232.2665 13.66887559427098

Suivez COSMOS 970 DEB en temps réel avec AllMySat

Download on the App Store